TimePST,TemperatureF,Dew PointF,Humidity,Sea Level PressureIn,VisibilityMPH,Wind Direction,Wind SpeedMPH,Gust SpeedMPH,PrecipitationIn,Events,Conditions,WindDirDegrees,DateUTC
12:53 AM,55.0,48.9,80,30.11,10.0,NE,4.6,-,N/A,,Clear,50,2012-11-27 08:53:00
1:53 AM,54.0,48.0,80,30.10,10.0,NNE,3.5,-,N/A,,Clear,30,2012-11-27 09:53:00
2:53 AM,53.1,48.0,83,30.09,8.0,Calm,Calm,-,N/A,,Clear,0,2012-11-27 10:53:00
3:53 AM,53.1,48.0,83,30.09,8.0,Calm,Calm,-,N/A,,Clear,0,2012-11-27 11:53:00
4:53 AM,53.1,48.0,83,30.10,8.0,Calm,Calm,-,N/A,,Clear,0,2012-11-27 12:53:00
5:53 AM,53.1,48.0,83,30.13,7.0,Calm,Calm,-,N/A,,Clear,0,2012-11-27 13:53:00
6:02 AM,53.6,46.4,77,30.14,7.0,Calm,Calm,-,N/A,,Scattered Clouds,0,2012-11-27 14:02:00
6:39 AM,53.6,48.2,82,30.15,7.0,Calm,Calm,-,N/A,,Overcast,0,2012-11-27 14:39:00
6:53 AM,55.0,48.9,80,30.16,6.0,NE,3.5,-,N/A,,Haze,40,2012-11-27 14:53:00
7:53 AM,57.0,50.0,77,30.16,5.0,Calm,Calm,-,N/A,,Haze,0,2012-11-27 15:53:00
8:53 AM,61.0,52.0,72,30.17,5.0,NNW,3.5,-,N/A,,Haze,330,2012-11-27 16:53:00
9:53 AM,62.1,52.0,70,30.17,5.0,NW,4.6,-,N/A,,Haze,310,2012-11-27 17:53:00
10:05 AM,62.6,51.8,68,30.17,5.0,Calm,Calm,-,N/A,,Haze,0,2012-11-27 18:05:00
10:53 AM,64.0,53.1,67,30.14,5.0,Calm,Calm,-,N/A,,Haze,0,2012-11-27 18:53:00
11:53 AM,66.9,53.1,61,30.09,5.0,Calm,Calm,-,N/A,,Haze,0,2012-11-27 19:53:00
12:53 PM,68.0,53.1,59,30.07,6.0,SW,8.1,-,N/A,,Haze,230,2012-11-27 20:53:00
1:53 PM,66.9,53.1,61,30.05,6.0,West,3.5,-,N/A,,Haze,260,2012-11-27 21:53:00
2:53 PM,66.0,53.1,63,30.05,9.0,SW,9.2,-,N/A,,Mostly Cloudy,230,2012-11-27 22:53:00
3:53 PM,64.0,53.1,67,30.06,10.0,WSW,6.9,-,N/A,,Mostly Cloudy,240,2012-11-27 23:53:00
4:53 PM,63.0,53.1,70,30.06,10.0,WSW,3.5,-,N/A,,Scattered Clouds,240,2012-11-28 00:53:00
5:53 PM,62.1,53.1,72,30.08,10.0,WSW,3.5,-,N/A,,Partly Cloudy,240,2012-11-28 01:53:00
6:53 PM,61.0,53.1,75,30.10,10.0,South,3.5,-,N/A,,Clear,190,2012-11-28 02:53:00
7:53 PM,60.1,53.1,78,30.11,10.0,South,3.5,-,N/A,,Partly Cloudy,190,2012-11-28 03:53:00
8:53 PM,59.0,52.0,78,30.13,10.0,Calm,Calm,-,N/A,,Partly Cloudy,0,2012-11-28 04:53:00
9:53 PM,59.0,52.0,78,30.15,10.0,Calm,Calm,-,N/A,,Partly Cloudy,0,2012-11-28 05:53:00
10:53 PM,57.9,52.0,81,30.15,10.0,Calm,Calm,-,N/A,,Clear,0,2012-11-28 06:53:00
11:53 PM,57.9,52.0,81,30.15,8.0,Calm,Calm,-,N/A,,Partly Cloudy,0,2012-11-28 07:53:00